HELLAS-SAT 3 (42814 NORAD) Tracking and Keplerian Element Data

This shows tracking and keplerian element data for the satellite.

Feedback or suggestion? Click here.




ElementValue
Catalog42814
NameHELLAS-SAT 3
Epoch Orbit702
Epoch Day146.1331959
Epoch Year2019
RAAN59.9003
Inclination0.0841
Eccentricity0.000493
Argument of Perigee344.8425
Mean Anonmoly285.6032
Mean Motion1.0027107
Decay Rate1.49E-06
L11 42814U 17040A 19146.13319590 .00000149 00000-0 00000+0 0 9996
L22 42814 0.0841 59.9003 0004930 344.8425 285.6032 1.00271070 7029

Live tracking and technical data element details for HELLAS-SAT 3 (NORAD 42814). HELLAS-SAT 3 can be tracked NOW for your location showing map with azimuth and elevation plus other details from your city location.

Track the satellite on the map from your city or location and see movement details for azimuth, elevation, latitude, longitude, range, height, and movement on the map or in text.







IsCatalogInMostPopularTable: catalog: 42814, numindb: 199
Update: records affected: 1



GetName: 42814 HELLAS-SAT 3

Hit Count: updated at: Sun, 26 May 2019 19:56:53 GMT